RH
56 50 40 30 20 12 8 6 6 6 5 5 5 5 4 3 3 3 3 3 3 3 4 4 4 4 4 4 4 4 3 4 4 4 4 4 4 4 4 4 5 5 5 5 6 7 7 7 8 8 9 9 11 15 22 26 26 22 14 10 14 22 32
58 49 40 35 26 15 9 7 6 6 5 4 4 4 4 3 3 3 3 3 4 4 4 4 4 4 4 3 3 3 3 3 4 4 4 4 4 4 4 4 5 5 5 5 5 5 5 6 7 7 8 9 10 12 18 24 27 27 22 14 11 16 27
63 56 42 37 34 23 13 9 7 6 5 4 4 3 3 3 3 3 3 3 3 4 3 4 4 3 3 3 2 3 3 3 3 3 3 3 4 4 4 4 4 4 4 4 5 6 6 7 6 7 7 8 10 10 14 20 26 29 28 22 14 12 19
62 62 50 41 40 33 21 12 9 8 6 5 5 4 3 3 3 3 3 3 3 3 3 3 3 3 3 2 2 3 3 3 3 3 3 3 4 6 7 8 9 9 9 8 7 7 7 8 8 8 7 7 9 10 12 16 22 27 30 29 22 14 14
56 61 62 52 44 36 22 12 10 9 7 5 5 4 2 2 3 3 3 3 3 3 3 3 3 3 3 3 3 4 4 5 6 7 10 12 16 20 23 25 26 26 25 24 22 18 14 12 11 11 9 7 8 11 11 12 17 22 27 31 30 23 15
56 58 63 56 53 45 27 18 16 12 10 9 5 4 4 2 2 3 3 3 3 3 3 3 2 2 3 3 4 5 5 7 11 16 21 25 28 31 32 32 32 32 32 31 31 31 30 26 21 16 14 12 11 12 13 12 13 17 22 28 32 31 22
61 61 63 59 60 54 36 31 29 20 16 14 9 7 5 4 5 5 5 4 3 3 2 3 3 3 3 4 4 4 5 9 15 20 24 27 29 31 32 32 32 31 30 30 29 30 32 34 33 29 24 20 17 16 15 14 12 14 18 24 30 33 29
63 64 67 63 62 56 46 45 44 35 26 18 16 17 12 10 12 12 12 10 7 6 4 3 3 3 3 3 3 4 6 9 13 18 24 29 34 35 36 37 38 38 36 34 32 30 30 33 37 38 35 31 27 25 22 19 16 15 16 20 26 32 33
61 59 62 64 61 57 54 53 50 45 37 30 31 33 26 20 18 18 20 17 12 10 10 10 8 7 8 10 10 11 11 12 14 19 27 35 39 39 40 43 44 43 40 35 31 30 30 32 35 39 41 40 37 35 32 29 26 23 21 20 22 27 32
61 58 61 66 61 56 59 60 54 49 49 47 45 42 34 28 23 20 20 21 21 18 17 17 18 20 23 24 26 26 23 22 21 23 31 38 41 41 44 46 47 45 38 31 27 25 26 30 33 37 40 42 42 40 39 37 35 33 30 25 23 26 30
53 49 55 64 62 56 60 62 57 55 56 55 50 40 31 27 26 23 20 21 26 27 25 22 21 24 29 30 31 32 32 31 29 29 35 41 43 43 45 48 49 45 36 28 25 24 23 25 27 29 32 33 35 34 34 35 35 34 33 30 26 26 28
37 39 50 62 63 60 62 63 63 64 62 61 58 48 35 28 27 28 26 25 26 28 30 30 24 21 24 27 30 33 36 38 36 35 39 43 44 45 48 52 52 45 35 28 25 23 21 20 18 18 18 18 18 18 20 22 23 25 28 30 29 29 30
29 37 48 58 62 63 65 67 68 69 68 67 66 59 51 43 39 37 36 34 32 30 32 35 32 25 23 24 27 32 38 42 41 40 41 44 45 47 53 57 54 45 35 30 27 23 19 17 15 14 14 14 14 14 15 15 15 16 19 23 25 28 29
34 40 46 54 62 63 64 67 69 71 72 72 68 62 59 56 52 49 46 44 43 41 40 42 42 40 38 35 34 35 40 44 44 43 43 44 46 50 57 60 54 44 36 33 29 24 19 18 17 17 17 17 17 17 17 17 16 17 19 22 24 26 29
39 46 50 56 61 62 62 63 66 69 71 71 68 64 63 61 58 55 53 50 49 49 48 46 45 45 46 46 44 43 44 46 47 45 44 45 47 52 61 63 54 44 39 37 32 26 22 21 20 20 20 21 21 19 18 17 17 19 20 23 25 26 29
39 52 60 62 62 63 60 55 55 59 62 62 61 60 62 63 60 57 56 53 51 53 50 44 41 40 42 47 50 48 47 48 49 48 46 46 49 56 63 63 55 46 42 40 35 28 25 23 22 24 26 27 26 23 20 18 18 20 20 21 21 19 18
27 41 50 51 53 55 51 46 45 48 50 51 50 52 56 60 59 56 55 53 54 56 51 44 41 36 36 46 53 51 48 48 49 49 48 48 51 58 65 64 56 48 45 42 36 29 26 24 26 30 35 37 36 34 30 25 22 21 21 20 20 18 16
10 16 21 23 26 30 31 33 35 37 39 40 38 39 43 48 51 51 50 50 51 50 46 43 39 28 24 38 52 53 51 50 51 50 49 51 55 60 66 67 58 49 46 45 38 31 28 29 32 38 43 45 46 46 44 39 32 26 24 22 21 20 18
4 4 6 7 9 10 13 17 20 21 24 26 26 27 27 30 37 41 40 39 41 42 43 42 34 20 17 31 48 56 56 53 52 52 51 55 59 60 64 67 59 50 48 47 42 37 36 38 41 44 48 50 52 54 54 52 45 36 30 27 25 24 21
3 3 3 3 4 4 4 6 6 7 9 10 13 17 17 19 24 27 25 25 31 40 43 36 26 17 16 27 42 56 63 61 57 57 57 59 60 59 63 67 61 51 47 48 47 45 45 47 49 51 53 54 55 56 57 57 54 48 40 33 30 29 27
3 4 4 3 3 3 3 3 3 3 4 3 4 7 9 12 14 15 15 16 22 33 35 28 24 23 22 25 33 46 61 68 66 64 62 61 60 60 62 66 61 51 47 49 50 51 52 54 56 58 59 60 60 61 60 58 58 57 53 45 37 33 31
6 5 5 5 5 4 4 3 3 3 2 3 3 3 5 7 7 9 11 11 15 22 23 23 33 41 38 35 34 37 52 67 70 66 62 58 56 56 56 58 56 50 48 50 52 54 55 56 58 59 61 64 65 66 65 62 58 58 59 55 47 42 38
7 6 6 6 6 5 5 4 4 4 3 3 4 3 3 4 5 6 7 8 11 14 15 24 43 55 51 45 40 35 39 49 54 53 51 49 49 51 52 53 53 51 51 53 54 56 56 56 57 57 59 63 65 66 65 63 61 59 59 59 58 57 56
7 7 7 7 6 5 5 5 5 5 5 5 5 5 4 4 4 5 5 7 11 12 16 31 49 56 52 47 45 41 39 39 39 37 35 38 44 49 52 53 54 55 56 57 57 57 56 56 56 57 59 61 64 66 66 65 65 64 63 64 66 67 68
8 8 7 8 8 7 6 6 6 6 7 7 6 6 6 5 5 6 7 9 11 15 24 38 48 54 52 48 48 50 49 47 43 36 30 34 44 51 54 55 56 58 60 61 61 59 58 58 58 58 59 60 62 65 67 68 69 69 67 67 67 68 71
9 9 9 8 9 8 8 8 8 7 8 8 7 7 7 6 7 7 8 10 11 15 28 39 45 51 52 48 49 54 54 50 45 37 33 39 46 50 51 53 54 57 60 62 63 62 61 61 61 61 62 62 63 65 67 68 68 68 69 69 67 66 66
10 10 10 9 9 10 10 10 10 9 9 9 8 8 7 7 8 7 8 10 9 12 21 28 35 43 47 46 49 53 53 50 46 44 46 51 52 50 49 50 52 56 60 63 65 65 64 64 63 62 61 61 61 62 64 68 70 71 71 69 63 56 50
12 11 11 10 10 10 10 11 11 11 11 10 9 9 9 8 8 8 8 8 8 10 12 13 20 33 41 43 46 49 51 50 48 49 53 55 54 51 49 49 51 54 60 65 67 66 66 63 58 53 51 50 48 47 47 51 58 60 56 52 48 42 37
16 14 13 12 12 12 12 12 13 12 12 12 11 10 10 9 10 10 9 8 8 8 9 8 12 23 33 38 41 45 49 50 50 51 53 54 54 53 52 52 52 54 58 62 63 64 62 58 52 48 46 43 39 37 36 35 37 38 38 37 37 37 35
21 19 17 15 14 14 13 13 14 14 14 14 13 12 11 11 12 12 11 10 9 8 8 8 9 14 23 30 33 38 44 46 47 51 54 56 57 57 58 58 57 55 57 58 61 64 64 60 56 52 48 42 38 36 36 35 34 34 34 34 35 36 38
24 22 21 19 17 17 16 15 16 15 16 16 15 14 14 12 12 13 13 13 11 9 9 8 8 10 16 22 27 33 39 44 50 56 60 60 59 60 61 60 57 55 55 55 57 61 65 66 63 56 48 43 39 37 37 36 35 33 32 32 34 35 36
26 25 24 22 21 19 18 17 17 17 17 17 16 16 16 15 14 14 14 14 14 12 10 9 9 10 12 15 20 27 36 48 59 68 72 71 70 69 66 62 59 58 57 54 51 53 58 62 61 54 47 42 39 38 38 36 33 31 30 31 34 36 37
26 26 25 25 25 23 21 20 20 19 19 18 18 17 17 17 16 16 15 15 15 15 13 11 10 10 11 13 16 22 32 43 55 66 73 75 74 70 63 58 58 59 58 56 53 53 55 56 53 49 43 38 37 38 38 34 30 31 32 33 34 38 39
24 25 25 26 27 26 25 23 22 21 21 20 19 19 19 19 18 17 17 17 16 16 16 14 11 11 11 13 15 20 29 38 47 55 62 64 65 62 58 58 60 60 59 57 55 54 51 46 41 38 35 33 34 35 34 32 33 35 37 38 35 35 34
24 23 23 24 26 27 27 26 24 23 23 22 22 21 20 20 20 19 19 19 18 18 17 16 14 13 12 13 14 17 22 29 35 40 44 47 48 48 48 50 51 50 49 47 44 41 38 34 32 31 31 30 32 32 30 31 34 36 37 37 37 35 34
24 23 22 22 23 24 25 26 25 24 24 23 23 23 22 22 22 22 22 21 20 20 19 18 17 16 15 15 15 15 17 19 21 24 26 29 31 33 35 36 36 35 35 33 31 30 30 30 29 31 33 33 32 31 30 31 35 37 38 38 39 40 40
25 24 23 22 22 22 24 24 25 25 25 25 24 24 24 24 24 24 24 23 22 22 21 20 19 19 18 19 18 18 19 19 19 19 20 22 24 25 27 28 28 28 27 27 27 27 27 27 28 31 38 43 41 35 31 31 35 39 39 38 38 39 40
26 25 24 23 22 21 22 23 24 24 25 25 25 24 25 25 26 26 25 24 24 24 23 22 22 21 21 21 21 22 22 22 22 22 23 26 26 26 26 26 26 25 26 27 27 26 26 26 27 28 34 41 42 38 35 36 39 39 36 34 33 35 38
Wind_Speed
32 30 27 27 26 25 25 24 23 23 23 22 22 23 23 24 23 23 23 24 25 25 25 24 24 23 22 22 22 21 20 20 19 20 20 20 19 18 18 18 18 17 16 15 14 14 13 13 12 11 11 10 9 8 8 8 9 8 7 8 8 8 8
32 29 28 29 27 26 25 25 25 25 24 23 24 24 24 23 23 24 24 25 26 26 25 25 25 24 24 24 23 22 21 20 20 20 21 20 20 19 19 19 19 18 17 16 15 15 14 14 14 13 12 12 11 10 10 10 10 9 9 9 9 9 8
30 28 29 28 26 25 26 26 26 26 25 25 25 24 23 23 23 24 25 26 26 26 26 26 26 25 25 25 24 23 22 21 21 21 21 21 20 20 19 19 19 19 18 17 16 16 15 14 14 14 14 13 13 12 12 11 11 10 10 10 10 11 10
30 28 29 27 27 26 26 26 26 27 26 25 25 24 23 23 24 25 26 26 26 26 26 25 26 26 26 25 24 23 21 20 20 21 21 21 21 20 19 18 18 18 18 17 17 17 16 16 15 15 15 15 14 14 13 13 13 12 11 11 11 12 12
33 31 29 28 28 28 25 24 25 26 26 25 25 25 24 24 25 26 26 26 26 25 25 26 26 25 25 24 23 22 21 20 20 20 20 20 20 19 18 18 19 18 18 18 17 17 17 17 17 17 16 16 16 15 15 15 15 14 13 13 12 13 14
37 32 29 28 29 28 24 23 23 24 24 25 26 26 26 25 25 25 24 24 25 25 25 25 24 24 24 24 23 22 21 20 19 19 19 19 19 19 19 20 20 20 20 19 19 18 18 18 18 18 18 18 17 17 16 16 16 17 16 15 14 14 14
37 32 30 29 28 25 22 22 23 23 24 25 26 26 26 25 25 24 24 24 24 24 24 24 23 23 23 23 22 21 20 19 19 19 20 19 19 19 20 20 19 20 20 20 20 20 20 20 19 19 19 19 19 18 18 18 18 18 18 17 16 15 15
38 32 29 28 27 24 22 23 24 24 24 24 23 23 24 24 25 24 23 23 23 23 22 23 23 22 22 22 21 20 20 21 21 20 20 20 19 19 19 19 19 19 19 19 20 20 21 21 21 20 20 20 20 20 20 19 19 19 19 19 19 18 17
39 34 27 25 26 26 25 26 26 24 23 22 22 23 25 25 25 24 23 23 23 22 21 21 21 21 22 21 20 20 21 22 21 21 21 20 19 19 19 19 19 19 19 19 19 19 20 20 21 21 21 21 21 20 20 20 20 20 20 20 21 21 20
39 37 31 28 28 28 28 28 25 22 22 22 24 26 26 26 26 25 25 24 23 22 21 22 22 21 21 20 20 21 22 22 22 22 21 21 20 19 19 20 19 19 19 19 19 18 18 19 20 21 22 21 21 21 21 21 21 21 21 22 22 23 22
41 37 33 32 31 30 29 26 22 21 24 24 24 25 26 27 26 25 26 26 24 23 23 24 25 24 22 21 22 22 22 21 22 21 21 21 20 20 21 20 20 19 18 19 18 18 18 18 18 19 20 21 21 21 21 22 22 22 22 22 23 24 24
39 32 32 34 34 32 30 27 25 25 26 27 27 26 25 26 25 25 25 26 26 26 26 26 27 26 25 24 24 24 22 21 21 20 21 21 21 21 21 21 19 18 18 18 18 17 17 16 16 16 17 19 19 19 20 21 21 21 22 22 23 23 24
34 32 34 36 36 35 34 32 31 30 30 31 31 29 26 24 24 24 24 24 25 27 27 27 27 27 27 26 26 25 22 21 20 20 21 22 22 22 22 21 19 18 18 17 16 15 15 15 14 14 14 14 14 14 15 16 17 18 20 21 21 22 23
34 35 36 37 38 38 36 35 34 34 33 34 34 32 28 26 25 24 24 25 26 26 27 27 26 27 27 28 28 27 24 23 22 22 22 23 23 22 22 21 19 18 17 16 14 14 14 14 13 12 11 11 11 10 10 11 11 12 14 16 17 18 20
36 36 37 39 40 39 37 36 37 37 37 37 37 35 32 30 29 26 25 26 26 26 27 27 26 25 26 28 29 28 26 26 25 24 24 24 24 23 22 21 19 18 17 16 15 15 15 14 12 11 10 9 9 9 9 9 10 10 11 12 14 16 17
39 39 40 41 42 41 39 38 38 39 40 39 39 37 35 34 33 30 29 29 28 27 28 28 26 24 24 26 28 29 29 28 27 26 26 25 24 23 23 22 21 19 18 16 16 16 15 14 13 11 10 9 8 8 8 8 9 10 11 13 15 16 17
41 42 44 44 43 42 41 41 41 41 41 41 40 39 38 37 36 34 33 33 31 28 29 29 26 23 22 22 25 29 30 29 28 27 27 26 25 24 24 24 23 21 19 18 18 18 17 15 14 12 11 10 9 9 8 8 9 11 12 14 16 18 19
40 41 42 42 42 40 40 42 43 42 42 42 41 40 39 38 38 37 36 35 34 31 30 30 27 24 21 21 23 26 27 28 29 28 28 27 27 25 25 26 24 22 21 20 19 19 18 17 15 14 13 12 11 11 10 10 10 11 13 15 17 19 20
38 39 39 40 39 38 38 40 41 41 42 42 42 41 40 39 39 38 37 36 35 34 32 30 28 25 22 21 22 22 23 26 28 29 28 28 28 27 27 27 26 24 22 21 21 20 19 18 17 16 16 15 14 14 14 13 13 13 14 16 18 19 21
36 36 35 35 33 32 32 34 36 37 38 38 39 40 40 39 39 39 38 37 36 36 33 30 28 25 22 21 21 20 22 25 28 29 29 29 30 29 28 27 27 25 24 24 23 22 20 19 19 19 18 18 18 18 17 17 17 16 16 18 19 20 22
34 34 33 31 29 27 27 30 32 32 32 33 34 36 38 39 39 40 40 38 37 37 35 31 27 23 20 20 20 20 22 25 27 29 30 30 31 30 29 28 27 26 26 25 25 23 22 21 22 22 22 22 22 22 21 20 20 19 19 20 22 23 24
34 34 33 30 28 27 27 28 27 27 27 28 30 32 35 37 39 40 40 39 37 36 35 31 26 21 18 18 19 19 21 24 27 30 31 31 31 29 28 27 26 26 27 27 27 26 25 24 24 24 24 24 25 25 25 24 24 23 22 22 24 26 27
35 34 31 29 29 29 28 26 25 24 24 24 25 27 30 34 36 38 38 38 36 34 32 29 24 21 19 18 18 18 19 22 25 28 30 30 28 26 25 25 25 27 28 28 28 28 27 27 28 28 27 27 27 27 28 28 28 26 23 23 24 27 28
35 33 32 31 30 29 28 27 26 25 24 23 23 23 25 29 32 33 35 35 34 32 30 27 24 22 20 19 18 18 18 19 22 24 27 27 25 24 24 25 26 27 27 28 28 29 29 29 29 30 30 30 30 29 30 31 30 27 24 24 26 28 30
36 36 35 34 32 30 30 29 28 27 26 25 24 23 23 25 27 30 31 32 32 30 29 27 25 24 23 21 20 20 20 20 20 21 23 23 24 24 25 25 26 27 28 28 28 28 29 29 29 29 30 31 31 31 30 31 31 30 27 27 28 30 32
40 39 37 36 33 32 32 31 30 29 28 27 25 24 24 24 25 27 29 29 30 29 29 29 28 27 26 24 22 22 22 21 20 19 20 21 23 24 25 26 27 27 28 28 28 29 29 30 30 30 31 31 32 32 32 32 32 32 31 31 31 32 34
42 41 40 38 35 34 34 33 31 31 30 29 28 27 26 26 25 26 27 29 29 28 29 31 31 30 29 27 25 24 24 22 20 18 19 21 23 24 25 25 27 28 28 28 29 30 30 30 31 31 31 31 31 32 32 33 34 33 33 34 35 34 35
43 42 42 40 38 37 36 35 33 32 31 30 30 29 29 28 27 27 27 28 29 30 31 31 31 32 31 29 27 27 26 24 22 20 21 22 23 23 24 25 27 28 29 29 30 31 32 32 32 32 33 33 33 32 32 32 34 34 34 35 35 36 37
45 44 44 43 41 39 38 37 36 35 33 32 32 31 31 31 29 28 28 28 29 31 31 30 31 32 33 31 30 29 28 27 26 24 23 23 23 24 25 26 28 29 30 31 32 33 35 35 35 35 36 36 36 35 34 34 35 35 35 34 36 38 39
45 45 45 45 44 42 41 40 38 37 36 35 33 33 33 32 32 31 30 30 30 31 31 31 31 32 34 33 32 31 31 30 29 28 27 27 27 28 28 29 30 31 32 33 35 37 38 38 38 39 39 39 39 38 38 38 38 38 38 37 37 39 39
45 45 46 46 45 44 43 42 40 39 38 37 36 35 34 34 34 33 33 32 31 32 32 32 32 33 34 35 35 34 33 31 30 30 30 31 31 32 32 32 34 34 35 36 37 39 41 41 42 43 42 43 42 41 41 41 41 42 43 42 41 41 41
44 45 45 45 44 44 44 43 42 41 40 39 38 36 36 36 35 35 35 34 34 34 33 33 34 34 34 35 36 35 34 33 32 33 34 35 36 36 36 37 38 38 39 40 40 41 42 44 46 46 46 46 46 44 43 44 45 45 45 45 45 44 43
44 44 44 44 43 44 45 44 43 42 42 40 39 38 37 37 37 36 37 37 37 36 35 34 34 35 36 36 36 36 36 35 35 35 37 39 40 40 40 41 42 42 43 43 43 44 45 46 48 49 48 48 47 46 46 47 48 48 48 49 49 47 46
45 44 44 43 43 43 44 44 44 43 42 41 41 40 39 38 38 38 38 38 38 38 38 37 36 36 37 38 38 38 39 38 38 39 40 42 43 44 44 44 44 45 45 45 46 47 48 49 49 49 49 48 48 48 48 49 50 50 50 51 53 52 50
46 45 45 44 43 42 43 43 43 43 42 41 41 41 40 39 39 39 38 38 38 38 39 39 39 39 39 39 40 41 41 42 43 43 45 46 47 47 47 47 47 47 48 48 48 49 49 50 50 49 49 49 49 50 51 51 52 51 51 53 56 55 54
47 47 46 46 45 44 43 42 42 42 42 41 41 41 41 40 40 39 39 39 38 38 39 40 40 41 41 41 42 42 43 44 45 46 47 47 48 48 49 49 49 49 49 49 49 49 49 50 50 50 50 50 51 52 52 52 52 52 52 54 56 57 56
48 48 47 47 46 45 44 43 42 42 41 41 41 41 40 40 40 40 39 39 39 39 39 40 41 42 42 42 43 43 43 44 46 46 46 47 48 48 49 49 49 49 49 50 50 50 50 50 50 50 51 53 54 54 54 54 54 54 55 57 59 60 60
50 49 48 48 47 47 46 45 44 42 42 42 41 41 40 39 39 39 39 39 40 40 40 41 42 43 43 44 44 44 44 46 46 46 47 48 49 50 50 51 51 51 51 51 51 51 51 52 52 52 53 54 56 56 56 56 57 59 61 62 63 65 65
Wind_Direction
225 216 212 214 215 219 218 215 214 214 214 212 212 213 211 209 207 203 200 200 201 202 203 204 206 208 210 213 216 216 214 212 213 217 221 223 224 224 223 223 225 226 226 226 225 226 229 235 241 244 247 253 257 266 283 297 305 301 283 267 261 265 274
226 222 216 214 212 215 218 216 215 216 214 213 214 214 212 209 207 205 203 204 205 206 207 208 210 212 214 216 218 217 215 212 212 216 221 224 226 227 227 228 230 232 233 233 233 233 235 238 242 244 246 250 254 258 266 281 296 304 299 282 266 261 265
228 227 225 219 210 211 217 217 217 218 216 215 217 217 214 211 209 208 207 207 208 209 211 213 214 215 216 217 218 218 216 214 214 217 221 224 227 230 231 232 233 235 237 238 239 240 241 241 241 244 245 248 251 255 259 267 282 297 304 297 279 265 261
231 228 229 224 212 208 215 219 219 220 218 217 219 220 217 215 214 212 211 211 212 213 214 216 217 218 219 219 220 221 221 220 220 221 224 227 231 235 238 239 239 240 241 241 241 243 243 244 244 244 245 247 250 253 256 260 270 283 295 300 292 276 265
237 231 229 223 213 207 212 221 223 223 221 218 220 221 220 220 220 218 217 215 216 216 217 218 219 219 220 222 223 225 226 227 227 228 230 233 237 240 243 245 247 248 249 249 248 247 246 247 248 248 247 247 249 251 253 255 261 270 279 290 296 287 273
237 234 230 225 217 208 209 219 224 225 224 220 220 221 220 222 225 226 225 223 222 221 221 221 221 221 223 225 227 230 233 235 236 238 240 241 244 246 247 249 252 254 256 257 256 255 253 252 252 252 251 250 250 251 252 253 256 261 268 278 288 290 281
234 234 229 224 218 209 208 218 222 222 223 221 220 221 221 222 225 229 230 229 228 226 225 224 223 224 227 229 231 234 237 239 241 243 245 247 249 251 253 256 258 261 261 263 262 260 258 256 254 254 254 254 254 253 253 254 254 257 262 269 277 284 283
231 234 228 221 219 215 209 215 220 220 221 219 217 219 221 221 222 226 231 232 231 229 227 227 225 226 229 231 234 236 239 240 242 245 247 250 253 256 260 263 265 267 268 267 265 263 261 259 257 256 256 257 257 258 258 259 259 259 262 266 271 276 279
229 236 233 224 224 224 216 214 218 220 219 215 212 214 217 218 220 223 227 232 233 230 227 228 228 229 232 235 238 240 242 244 246 248 250 251 255 260 264 267 268 269 272 271 269 267 263 260 258 257 257 257 259 261 262 263 263 264 264 265 267 271 275
225 231 230 224 225 228 224 217 216 222 225 220 216 216 217 218 219 220 222 227 232 233 230 230 230 233 238 241 243 243 244 246 247 249 250 252 257 261 264 267 269 272 275 276 275 272 267 262 259 258 258 259 260 261 262 263 263 263 263 262 263 266 271
223 226 225 223 224 228 229 225 222 226 232 233 232 228 224 222 221 220 220 222 226 232 235 234 232 233 238 244 246 247 247 248 248 248 250 252 257 261 265 267 271 274 277 278 278 275 271 266 262 260 259 259 259 258 258 260 261 262 262 261 261 264 268
226 227 224 223 224 226 229 229 227 227 230 234 238 236 231 227 224 223 223 222 224 228 233 237 238 237 239 245 249 251 253 254 253 251 250 253 257 262 266 268 271 274 275 275 275 272 270 268 265 262 260 259 259 258 257 259 260 260 260 260 260 263 267
229 227 224 223 224 224 225 226 226 227 229 230 233 236 234 231 227 225 225 226 228 231 234 240 244 245 247 249 251 252 254 256 256 252 249 251 255 259 263 267 269 271 270 269 269 267 264 263 262 260 260 261 263 261 259 260 261 260 259 260 260 262 266
228 227 225 223 222 223 223 224 225 226 228 229 233 236 237 238 237 232 228 227 228 232 235 239 244 248 250 252 252 252 252 252 251 248 246 247 251 256 261 264 266 266 266 265 262 257 254 254 254 255 256 258 260 260 259 261 262 259 258 260 261 261 263
224 225 225 223 222 223 223 224 225 226 227 229 233 236 237 240 243 243 240 237 235 237 240 241 243 246 247 249 251 251 249 247 246 246 245 245 248 254 258 260 261 261 260 258 253 249 247 245 245 248 251 254 259 263 264 263 262 260 258 259 259 256 257
219 219 221 222 223 224 226 227 228 229 229 231 234 236 236 238 242 245 246 246 246 246 248 248 247 248 248 246 247 248 246 243 242 243 244 245 247 250 253 255 256 255 254 251 248 245 244 241 239 242 246 252 259 267 271 268 264 262 261 259 260 259 257
218 218 221 223 223 224 226 227 229 230 232 235 237 238 238 238 240 243 245 247 248 249 251 253 253 253 253 249 245 245 244 242 240 240 243 245 246 247 249 252 252 251 250 247 245 244 243 240 239 238 241 249 258 264 271 272 269 267 266 264 264 264 263
222 223 226 227 228 228 228 227 228 230 232 235 238 240 241 241 241 243 245 246 246 248 251 254 256 257 256 253 246 243 242 241 240 239 240 244 246 246 246 249 250 249 248 246 245 244 243 241 239 238 241 249 256 262 267 269 269 269 270 270 270 269 268
227 227 229 231 231 233 233 232 232 233 234 236 238 240 242 243 243 244 245 244 244 246 249 252 256 257 254 251 248 244 242 240 240 240 240 243 246 247 246 247 248 248 247 247 247 246 244 244 244 246 249 253 256 260 263 263 264 266 268 271 272 272 273
226 228 230 231 232 234 235 237 238 238 238 239 239 240 242 244 244 244 245 245 244 244 247 250 255 257 253 250 248 245 242 242 241 241 240 242 246 248 248 246 247 247 248 249 250 250 249 249 252 254 257 260 261 262 262 263 265 265 265 267 269 271 272
225 227 229 230 232 233 235 237 238 238 239 240 240 240 242 244 245 245 246 247 245 245 247 251 253 254 252 250 249 245 242 243 242 240 240 241 244 247 247 246 247 248 249 250 251 251 250 251 254 257 261 264 268 269 268 267 266 266 264 263 265 266 269
226 226 228 229 229 229 231 232 233 234 234 236 237 237 239 241 243 245 246 248 248 247 249 250 249 248 249 250 248 244 241 241 241 241 242 244 244 246 247 247 247 247 247 248 249 249 250 251 252 254 257 261 266 270 271 271 271 271 270 267 267 269 272
225 225 227 228 227 226 227 228 230 231 231 232 233 234 235 237 240 242 244 246 247 248 248 245 243 245 248 247 246 244 241 241 243 244 246 248 247 246 245 245 244 244 245 247 248 249 250 251 252 254 255 256 260 265 269 273 276 278 278 278 278 280 282
225 226 226 226 225 224 224 225 227 230 232 233 234 234 234 235 236 238 240 242 243 244 243 239 237 242 245 243 244 246 245 245 247 249 249 249 247 244 241 241 242 243 245 247 249 251 253 254 255 257 257 257 259 263 267 271 276 279 281 282 283 285 286
228 228 227 226 225 224 224 225 226 229 232 233 234 235 236 235 235 236 237 238 239 240 240 237 236 240 243 242 243 247 250 250 252 253 251 248 244 241 239 240 242 245 248 250 253 256 258 259 260 261 262 262 262 264 267 271 276 279 281 282 284 284 284
229 230 230 228 227 227 228 228 228 230 232 233 234 236 237 237 237 238 238 239 240 239 238 237 237 238 241 242 242 246 250 254 256 257 253 248 244 242 241 242 245 249 252 256 259 261 263 265 266 267 268 269 268 267 268 271 276 280 282 284 284 283 281
227 230 232 232 231 232 232 233 232 232 232 232 233 235 237 238 240 240 241 243 243 241 238 238 237 238 239 241 243 245 250 253 256 257 254 251 250 250 250 250 252 255 258 261 264 265 267 269 271 272 274 275 276 275 273 272 274 277 280 282 282 281 280
223 227 231 232 232 233 235 235 236 236 235 233 232 233 235 237 239 241 242 244 245 244 243 241 239 238 239 241 243 245 248 251 253 255 256 255 256 256 256 255 255 257 259 262 265 268 271 273 275 278 280 282 283 283 280 277 274 274 276 279 280 281 281
222 225 229 231 232 233 235 236 237 238 238 238 236 235 236 237 239 240 241 243 244 245 246 245 241 239 239 240 242 244 246 249 251 254 256 257 258 259 259 258 258 259 261 264 266 269 272 275 278 280 283 284 285 285 283 281 278 276 277 278 280 281 282
222 224 227 229 231 232 234 235 237 238 239 240 240 239 239 240 240 241 241 242 243 245 246 247 244 241 240 241 241 243 245 247 250 253 256 258 260 261 262 263 264 266 267 269 271 272 274 275 277 279 281 282 283 283 283 281 280 280 280 280 281 281 282
222 224 227 228 229 231 232 233 235 236 238 238 239 240 240 241 242 243 243 243 243 244 245 247 247 244 241 241 242 243 244 246 249 252 255 258 260 262 264 266 268 269 271 272 273 274 275 275 276 277 279 280 280 281 281 281 280 280 281 282 282 282 282
221 224 227 229 229 230 231 231 232 234 235 236 237 238 239 240 241 243 244 244 243 243 244 245 247 246 244 243 243 243 244 246 247 249 253 256 259 261 264 265 267 268 269 271 271 272 273 274 275 276 277 278 279 279 279 279 280 281 283 284 284 283 283
221 223 226 229 230 231 231 231 231 232 233 234 235 235 237 239 240 241 242 243 244 244 244 244 245 246 246 246 245 244 244 244 245 247 249 252 255 258 260 262 263 265 267 268 270 271 271 272 273 274 275 276 277 277 278 279 281 282 283 284 284 283 283
222 222 224 226 229 231 232 232 232 232 233 233 234 235 236 237 238 239 240 242 243 244 244 243 243 244 246 247 247 245 244 244 244 245 246 248 251 254 256 258 259 262 264 265 267 268 268 269 270 271 273 274 276 277 278 280 281 282 282 283 283 282 282
224 223 223 224 226 229 231 232 233 234 234 235 235 236 237 238 239 239 240 241 242 243 243 243 242 242 244 245 246 246 245 245 245 245 246 248 250 252 254 256 258 260 261 263 264 265 267 268 270 272 273 274 275 277 278 279 279 280 280 280 281 282 282
228 227 225 224 225 227 229 232 233 234 235 236 237 238 238 239 240 240 241 241 242 243 243 243 242 242 243 245 246 247 248 248 248 249 250 251 253 254 256 257 259 261 262 263 265 266 268 270 271 272 273 274 275 276 276 276 276 276 276 277 277 278 279
232 231 229 228 227 227 229 231 233 234 236 236 237 238 239 240 241 241 241 241 241 242 243 243 244 245 246 247 248 249 250 250 251 253 254 254 255 256 257 259 261 262 264 265 266 267 268 270 271 271 271 272 273 275 275 274 274 274 274 275 277 278 279
234 234 233 232 230 229 230 230 232 233 235 236 237 238 238 239 239 240 240 240 240 241 242 243 244 246 248 249 251 251 252 253 254 255 256 256 257 258 259 261 262 263 265 266 267 268 269 269 269 270 269 269 271 272 273 274 274 275 277 279 280 281 282